Weather History for Gaylord, MI

Change the Weather History Date:

Wednesday, April 10, 2013

  Actual Average Record
Temperature  
Mean Temperature 32 °F -  
Max Temperature 35 °F 48 °F 75 °F (1977)
Min Temperature 30 °F 26 °F 6 °F (2007)
Degree Days  
Heating Degree Days 32    
Moisture  
Dew Point 30 °F    
Average Humidity 93    
Maximum Humidity 100    
Minimum Humidity 72    
Precipitation  
Precipitation 0.39 in - - ()
Sea Level Pressure  
Sea Level Pressure 30.07 in    
Wind  
Wind Speed 8 mph (NE)    
Max Wind Speed 14 mph    
Max Gust Speed 22 mph    
Visibility 5 miles    
Events Rain , Snow    
Averages and records for this station are not official NWS values.
T = Trace of Precipitation, MM = Missing Value Source: NWS Daily Summary

Daily Weather History Graph

Daily Weather History Graph

Search for Another Location

Airport:

Trip Planner

Search our weather history database for the weather conditions in past years. The results will help you decide how hot, cold, wet, or windy it might be!

Date:

Astronomy

Apr. 10, 2013 Rise Set
Actual Time 7:02 AM EDT 8:18 PM EDT
Civil Twilight 6:32 AM EDT 8:48 PM EDT
Nautical Twilight 5:55 AM EDT 9:25 PM EDT
Astronomical Twilight 5:17 AM EDT 10:04 PM EDT
Moon 6:56 AM EDT (4/10) 8:56 PM EDT (4/10)
Length of Visible Light 14h 16m
Length of Day
13h 15m
New Moon, 0% of the Moon is Illuminated
Apr 10
New Moon
Apr 18
First Quarter
Apr 25
Full
May 2
Last Quarter
May 9
New

Hourly Weather History & Observations

Time (EDT) Temp. Windchill Dew Point Humidity Pressure Visibility Wind Dir Wind Speed Gust Speed Precip Events Conditions
12:46 AM 33.8 °F 27.7 °F 33.8 °F 100% 30.06 in 5.0 mi NE 6.9 mph - N/A   Overcast
12:53 AM 33.1 °F 24.9 °F 32.0 °F 96% 30.09 in 3.0 mi NE 10.4 mph - N/A   Overcast
1:02 AM 32.0 °F 25.6 °F 32.0 °F 100% 30.05 in 2.5 mi NNE 6.9 mph - N/A   Overcast
1:12 AM 32.0 °F 26.4 °F 32.0 °F 100% 30.06 in 7.0 mi NNE 5.8 mph - N/A   Overcast
1:53 AM 32.0 °F 24.8 °F 30.9 °F 96% 30.07 in 10.0 mi NE 8.1 mph - N/A   Overcast
2:53 AM 30.9 °F 24.3 °F 30.9 °F 100% 30.06 in 10.0 mi NE 6.9 mph - N/A   Overcast
3:53 AM 30.9 °F 25.2 °F 30.9 °F 100% 30.10 in 9.0 mi NNE 5.8 mph - 0.00 in   Overcast
4:42 AM 30.2 °F 24.3 °F 30.2 °F 100% 30.09 in 1.5 mi NE 5.8 mph - 0.02 in Snow Light Snow
4:53 AM 30.9 °F 25.2 °F 30.9 °F 100% 30.13 in 0.8 mi NNE 5.8 mph - 0.04 in Snow Light Snow
5:14 AM 30.2 °F 22.6 °F 30.2 °F 100% 30.07 in 0.8 mi NE 8.1 mph - 0.05 in Snow Light Snow
5:28 AM 30.2 °F 22.6 °F 30.2 °F 100% 30.06 in 1.0 mi NE 8.1 mph - 0.09 in Snow Light Snow
5:46 AM 30.2 °F 22.6 °F 30.2 °F 100% 30.04 in 2.0 mi NE 8.1 mph - 0.12 in Snow Light Snow
5:53 AM 30.9 °F 24.3 °F 30.9 °F 100% 30.09 in 4.0 mi NE 6.9 mph - 0.14 in Snow Light Snow
6:20 AM 32.0 °F 26.4 °F 30.2 °F 93% 30.06 in 2.5 mi NE 5.8 mph - 0.03 in Snow Light Snow
6:33 AM 32.0 °F 25.6 °F 30.2 °F 93% 30.05 in 2.5 mi ENE 6.9 mph - 0.05 in Snow Light Snow
6:49 AM 30.2 °F 22.6 °F 30.2 °F 100% 30.05 in 3.0 mi NE 8.1 mph - 0.07 in Snow Light Snow
6:53 AM 30.9 °F 22.2 °F 30.9 °F 100% 30.09 in 4.0 mi NE 10.4 mph - 0.08 in Snow Light Snow
7:29 AM 30.2 °F 20.8 °F 30.2 °F 100% 30.05 in 1.8 mi NE 11.5 mph 18.4 mph 0.02 in Snow Light Snow
7:43 AM 30.2 °F 20.2 °F 30.2 °F 100% 30.04 in 2.0 mi NE 12.7 mph 19.6 mph 0.02 in Snow Light Snow
7:53 AM 30.9 °F 20.7 °F 30.0 °F 96% 30.09 in 1.2 mi NE 13.8 mph - 0.02 in Snow Light Snow
8:12 AM 30.2 °F 20.2 °F 30.2 °F 100% 30.03 in 3.0 mi NE 12.7 mph - 0.01 in Snow Light Snow
8:48 AM 30.2 °F 21.9 °F 30.2 °F 100% 30.02 in 1.8 mi ENE 9.2 mph 21.9 mph 0.03 in Snow Light Snow
8:53 AM 30.9 °F 22.8 °F 30.0 °F 96% 30.06 in 2.0 mi ENE 9.2 mph 18.4 mph 0.04 in   Overcast
9:01 AM 30.2 °F 24.3 °F 30.2 °F 100% 30.04 in 6.0 mi Variable 5.8 mph - 0.00 in   Overcast
9:17 AM 30.2 °F 25.4 °F 30.2 °F 100% 30.05 in 1.8 mi East 4.6 mph - 0.02 in Snow Light Snow
9:43 AM 30.2 °F 22.6 °F 30.2 °F 100% 30.06 in 1.8 mi ENE 8.1 mph - 0.05 in Snow Light Snow
9:48 AM 30.2 °F 23.4 °F 30.2 °F 100% 30.07 in 2.0 mi NE 6.9 mph - 0.05 in Snow Light Snow
9:53 AM 30.9 °F 22.8 °F 30.0 °F 96% 30.12 in 2.5 mi ENE 9.2 mph - 0.05 in Snow Light Snow
10:00 AM 32.0 °F 24.2 °F 30.2 °F 93% 30.08 in 3.0 mi NE 9.2 mph - 0.00 in Snow Light Snow
10:07 AM 32.0 °F 24.8 °F 30.2 °F 93% 30.08 in 1.8 mi NE 8.1 mph - 0.00 in Snow Light Snow
10:20 AM 32.0 °F 24.2 °F 30.2 °F 93% 30.08 in 1.0 mi NE 9.2 mph - 0.01 in Snow Light Snow
10:37 AM 32.0 °F 23.0 °F 30.2 °F 93% 30.06 in 1.0 mi NE 11.5 mph - 0.01 in Snow Light Snow
10:53 AM 32.0 °F 22.5 °F 30.0 °F 92% 30.10 in 2.5 mi ENE 12.7 mph - 0.02 in Snow Light Snow
11:05 AM 32.0 °F 23.6 °F 30.2 °F 93% 30.04 in 4.0 mi NE 10.4 mph - 0.00 in Snow Light Snow
11:53 AM 32.0 °F 23.6 °F 30.0 °F 92% 30.08 in 10.0 mi ENE 10.4 mph 17.3 mph 0.00 in   Overcast
12:53 PM 32.0 °F 23.0 °F 30.0 °F 92% 30.10 in 10.0 mi ENE 11.5 mph - N/A   Overcast
1:53 PM 33.1 °F 24.9 °F 30.9 °F 92% 30.11 in 5.0 mi NE 10.4 mph - 0.00 in Rain Light Rain
2:53 PM 34.0 °F 27.2 °F 30.9 °F 89% 30.11 in 10.0 mi ENE 8.1 mph - 0.00 in   Overcast
3:12 PM 33.8 °F 27.0 °F 30.2 °F 87% 30.05 in 10.0 mi ENE 8.1 mph - N/A   Overcast
3:53 PM 34.0 °F 28.8 °F 30.0 °F 85% 30.12 in 10.0 mi ENE 5.8 mph - N/A   Overcast
4:53 PM 34.0 °F 27.2 °F 30.0 °F 85% 30.09 in 10.0 mi NNE 8.1 mph - N/A   Overcast
5:38 PM 35.6 °F 29.2 °F 30.2 °F 81% 30.04 in 10.0 mi NE 8.1 mph - N/A   Overcast
5:53 PM 35.1 °F 28.6 °F 30.0 °F 82% 30.09 in 10.0 mi NE 8.1 mph - N/A   Overcast
6:03 PM 35.6 °F 31.7 °F 30.2 °F 81% 30.05 in 10.0 mi NE 4.6 mph - N/A   Overcast
6:32 PM 35.6 °F 29.2 °F 28.4 °F 75% 30.06 in 10.0 mi ENE 8.1 mph - N/A   Partly Cloudy
6:53 PM 35.1 °F 31.0 °F 28.9 °F 78% 30.13 in 10.0 mi Variable 4.6 mph - N/A   Scattered Clouds
7:53 PM 35.1 °F 30.1 °F 28.9 °F 78% 30.07 in 10.0 mi ENE 5.8 mph - N/A   Overcast
8:53 PM 35.1 °F 30.1 °F 28.0 °F 76% 30.09 in 10.0 mi NE 5.8 mph - N/A   Overcast
9:53 PM 34.0 °F 29.8 °F 28.0 °F 79% 30.08 in 10.0 mi ENE 4.6 mph - N/A   Overcast
10:53 PM 34.0 °F 31.0 °F 27.0 °F 75% 30.10 in 10.0 mi NNE 3.5 mph - N/A   Scattered Clouds
11:53 PM 33.1 °F 28.7 °F 25.0 °F 72% 30.12 in 10.0 mi NNE 4.6 mph - N/A   Partly Cloudy